Location: Newark
(54.4333°N, 18.5500°E)
Time: 20:04:53
(UTC+00:00)

Envisat - Pass Details

Date: 11 December 2019
Orbit: 764 x 766 km, 98.1° (Epoch: 25 January)

Event Time Altitude Azimuth Distance (km) Brightness Sun altitude
Rises 15:22:01 0° 133° (SE) 3,228 6.0 -8.1°
Reaches altitude 10° 15:24:29 10° 124° (SE) 2,306 5.2 -8.4°
Maximum altitude 15:29:01 34° 61° (ENE) 1,250 3.6 -9.0°
Drops below altitude 10° 15:33:35 10° 358° (N) 2,319 5.3 -9.6°
Sets 15:36:04 0° 350° (N) 3,250 6.1 -9.9°
